Flag for Australia Weather past 2 weeks in Ballarat, Victoria, Australia

Now
49 °F

Cool.


Feels Like: 49 °F
Forecast: 38 / 77 °F
Wind: 1 mph from North

Location: Sheoaks Aws

Current Time: Dec 20, 2014 at 12:49:36 AM

Latest Report: Dec 20, 2014 at 12:00 AM


Visibility: N/A

Pressure: 30.11 "Hg

Humidity: 78%

Dew point: 42 °F

Location of BallaratLocation

Historic Weather in Ballarat — Graph

°F

Ballarat temperature yesterday

Maximum temperature yesterday: 65 °F (at 4:00 PM)
Minimum temperature yesterday: 49 °F (at 6:00 AM)
Average temperature yesterday: 57 °F

Past Weeks' High & Low Weather Summary

 TemperatureHumidityPressure
High87 °F (Dec 13, 4:00 PM)100% (Dec 5, 6:00 AM)30.18 "Hg (Dec 5, 6:00 AM)
Low44 °F (Dec 18, 6:00 AM)13% (Dec 16, 3:00 PM)29.32 "Hg (Dec 16, 1:00 PM)
Average60 °F74%29.84 "Hg
* Reported Dec 4 10:00 PM — Dec 19 10:00 PM, Ballarat, Weather by CustomWeather, © 2014

Note: Actual official high and low records may vary slightly from our data, if they occured in-between our weather recording intervals... More about our weather records

Advertising

Ballarat weather history for previous 24 hours

 ConditionsComfort  
Time TempWeatherWind HumidityBarometerVisibility
10:00 PM
Dec 19
55 °FCool.3 mph62%30.12 "HgN/A
9:00 PM56 °FCool.2 mph67%30.11 "HgN/A
7:00 PM63 °FMild.6 mph50%30.07 "HgN/A
6:00 PM62 °FMild.8 mph52%30.05 "HgN/A
4:00 PM65 °FMild.9 mph38%30.04 "HgN/A
3:00 PM64 °FMild.8 mph39%30.04 "HgN/A
1:00 PM63 °FMild.7 mph44%30.04 "HgN/A
12:00 PM61 °FRefreshingly cool.9 mph52%30.05 "HgN/A
10:00 AM59 °FRefreshingly cool.9 mph56%30.03 "HgN/A
9:00 AM56 °FCool.9 mph64%30.03 "HgN/A
7:00 AM49 °FCool.8 mph86%29.99 "HgN/A
6:00 AM49 °FCool.7 mph89%29.97 "HgN/A
4:00 AM50 °FCool.10 mph84%29.94 "HgN/A
3:00 AM50 °FCool.8 mph82%29.93 "HgN/A
1:00 AM50 °FCool.6 mph82%29.93 "HgN/A
12:00 AM51 °FCool.6 mph80%29.93 "HgN/A
Weather by CustomWeather, © 2014

See weather overviewHow to use our weather pages